owner,sensor,date,latitude,longitude,vertical_datum,sea_water_temperature,qcFlag 
WAVCIS,ioos:station:WAVCIS:CSI03:1,2013-08-01T00:00:00Z,29.4412,-92.0613,10.0,0.573,11133222 
WAVCIS,ioos:station:WAVCIS:CSI03:1,2013-08-01T01:00:00Z,29.4412,-92.0613,10.0,0.728,11133222 
WAVCIS,ioos:station:WAVCIS:CSI03:1,2013-08-01T02:00:00Z,29.4412,-92.0613,10.0,0.785,11133222 
WAVCIS,ioos:station:WAVCIS:CSI03:1,2013-08-01T03:00:00Z,29.4412,-92.0613,10.0,-2.527,11144222 
WAVCIS,ioos:station:WAVCIS:CSI03:1,2013-08-01T04:00:00Z,29.4412,-92.0613,10.0,-2.482,11144222 
WAVCIS,ioos:station:WAVCIS:CSI03:1,2013-08-01T05:00:00Z,29.4412,-92.0613,10.0,-2.392,11144222 
WAVCIS,ioos:station:WAVCIS:CSI03:1,2013-08-01T06:00:00Z,29.4412,-92.0613,10.0,-2.402,11144222 
WAVCIS,ioos:station:WAVCIS:CSI03:1,2013-08-01T07:00:00Z,29.4412,-92.0613,10.0,-2.331,11144222 
WAVCIS,ioos:station:WAVCIS:CSI03:1,2013-08-01T08:00:00Z,29.4412,-92.0613,10.0,-2.279,11144222 
WAVCIS,ioos:station:WAVCIS:CSI03:1,2013-08-01T09:00:00Z,29.4412,-92.0613,10.0,-2.206,11144222 
WAVCIS,ioos:station:WAVCIS:CSI03:1,2013-08-01T10:00:00Z,29.4412,-92.0613,10.0,-2.128,11144222 
WAVCIS,ioos:station:WAVCIS:CSI03:1,2013-08-01T11:00:00Z,29.4412,-92.0613,10.0,-2.08,11144222 
WAVCIS,ioos:station:WAVCIS:CSI03:1,2013-08-01T12:00:00Z,29.4412,-92.0613,10.0,-2.02,11144222 
WAVCIS,ioos:station:WAVCIS:CSI03:1,2013-08-01T13:00:00Z,29.4412,-92.0613,10.0,-1.927,11144222 
WAVCIS,ioos:station:WAVCIS:CSI03:1,2013-08-01T14:00:00Z,29.4412,-92.0613,10.0,-1.896,11144222 
WAVCIS,ioos:station:WAVCIS:CSI03:1,2013-08-01T15:00:00Z,29.4412,-92.0613,10.0,-1.78,11144222 
WAVCIS,ioos:station:WAVCIS:CSI03:1,2013-08-01T16:00:00Z,29.4412,-92.0613,10.0,-1.612,11144222 
WAVCIS,ioos:station:WAVCIS:CSI03:1,2013-08-01T17:00:00Z,29.4412,-92.0613,10.0,-1.44,11144222 
WAVCIS,ioos:station:WAVCIS:CSI03:1,2013-08-01T18:00:00Z,29.4412,-92.0613,10.0,-1.271,11144222 
WAVCIS,ioos:station:WAVCIS:CSI03:1,2013-08-01T19:00:00Z,29.4412,-92.0613,10.0,-1.191,11144222 
WAVCIS,ioos:station:WAVCIS:CSI03:1,2013-08-01T20:00:00Z,29.4412,-92.0613,10.0,-0.985,11144222 
WAVCIS,ioos:station:WAVCIS:CSI03:1,2013-08-01T21:00:00Z,29.4412,-92.0613,10.0,-0.796,11144222 
WAVCIS,ioos:station:WAVCIS:CSI03:1,2013-08-01T22:00:00Z,29.4412,-92.0613,10.0,-0.696,11144222 
WAVCIS,ioos:station:WAVCIS:CSI03:1,2013-08-01T23:00:00Z,29.4412,-92.0613,10.0,-0.512,11144222 
WAVCIS,ioos:station:WAVCIS:CSI03:1,2013-08-02T00:00:00Z,29.4412,-92.0613,10.0,-0.381,11144222 
WAVCIS,ioos:station:WAVCIS:CSI03:1,2013-08-02T01:00:00Z,29.4412,-92.0613,10.0,-0.399,11144222 
WAVCIS,ioos:station:WAVCIS:CSI03:1,2013-08-02T02:00:00Z,29.4412,-92.0613,10.0,-0.355,11144222 
WAVCIS,ioos:station:WAVCIS:CSI03:1,2013-08-02T03:00:00Z,29.4412,-92.0613,10.0,-0.373,11144222 
WAVCIS,ioos:station:WAVCIS:CSI03:1,2013-08-02T04:00:00Z,29.4412,-92.0613,10.0,-0.378,11144222 
WAVCIS,ioos:station:WAVCIS:CSI03:1,2013-08-02T05:00:00Z,29.4412,-92.0613,10.0,-0.525,11144222 
WAVCIS,ioos:station:WAVCIS:CSI03:1,2013-08-02T06:00:00Z,29.4412,-92.0613,10.0,-0.431,11144222 
WAVCIS,ioos:station:WAVCIS:CSI03:1,2013-08-02T07:00:00Z,29.4412,-92.0613,10.0,-0.387,11144222 
WAVCIS,ioos:station:WAVCIS:CSI03:1,2013-08-02T08:00:00Z,29.4412,-92.0613,10.0,-0.376,11144222 
WAVCIS,ioos:station:WAVCIS:CSI03:1,2013-08-02T09:00:00Z,29.4412,-92.0613,10.0,-0.336,11144222 
WAVCIS,ioos:station:WAVCIS:CSI03:1,2013-08-02T10:00:00Z,29.4412,-92.0613,10.0,-0.202,11144222 
WAVCIS,ioos:station:WAVCIS:CSI03:1,2013-08-02T11:00:00Z,29.4412,-92.0613,10.0,-0.077,11144222 
WAVCIS,ioos:station:WAVCIS:CSI03:1,2013-08-02T12:00:00Z,29.4412,-92.0613,10.0,-0.01,11144222 
WAVCIS,ioos:station:WAVCIS:CSI03:1,2013-08-02T13:00:00Z,29.4412,-92.0613,10.0,0.066,11133222 
WAVCIS,ioos:station:WAVCIS:CSI03:1,2013-08-02T14:00:00Z,29.4412,-92.0613,10.0,0.134,11133222 
WAVCIS,ioos:station:WAVCIS:CSI03:1,2013-08-02T15:00:00Z,29.4412,-92.0613,10.0,0.239,11133222 
WAVCIS,ioos:station:WAVCIS:CSI03:1,2013-08-02T16:00:00Z,29.4412,-92.0613,10.0,0.347,11133222 
WAVCIS,ioos:station:WAVCIS:CSI03:1,2013-08-02T17:00:00Z,29.4412,-92.0613,10.0,0.524,11133222 
WAVCIS,ioos:station:WAVCIS:CSI03:1,2013-08-02T18:00:00Z,29.4412,-92.0613,10.0,0.628,11133222 
WAVCIS,ioos:station:WAVCIS:CSI03:1,2013-08-02T19:00:00Z,29.4412,-92.0613,10.0,0.853,11133222 
WAVCIS,ioos:station:WAVCIS:CSI03:1,2013-08-02T20:00:00Z,29.4412,-92.0613,10.0,0.897,11133222 
WAVCIS,ioos:station:WAVCIS:CSI03:1,2013-08-02T21:00:00Z,29.4412,-92.0613,10.0,0.448,11133222 
WAVCIS,ioos:station:WAVCIS:CSI03:1,2013-08-02T22:00:00Z,29.4412,-92.0613,10.0,0.851,11133222 
WAVCIS,ioos:station:WAVCIS:CSI03:1,2013-08-02T23:00:00Z,29.4412,-92.0613,10.0,1.044,11133222 
WAVCIS,ioos:station:WAVCIS:CSI03:1,2013-08-03T00:00:00Z,29.4412,-92.0613,10.0,0.995,11133222 
WAVCIS,ioos:station:WAVCIS:CSI03:1,2013-08-03T01:00:00Z,29.4412,-92.0613,10.0,1.084,11133222 
WAVCIS,ioos:station:WAVCIS:CSI03:1,2013-08-03T02:00:00Z,29.4412,-92.0613,10.0,1.303,11133222 
WAVCIS,ioos:station:WAVCIS:CSI03:1,2013-08-03T03:00:00Z,29.4412,-92.0613,10.0,1.38,11133222 
WAVCIS,ioos:station:WAVCIS:CSI03:1,2013-08-03T04:00:00Z,29.4412,-92.0613,10.0,1.452,11133222 
WAVCIS,ioos:station:WAVCIS:CSI03:1,2013-08-03T05:00:00Z,29.4412,-92.0613,10.0,0.924,11133222 
WAVCIS,ioos:station:WAVCIS:CSI03:1,2013-08-03T06:00:00Z,29.4412,-92.0613,10.0,1.241,11133222 
WAVCIS,ioos:station:WAVCIS:CSI03:1,2013-08-03T07:00:00Z,29.4412,-92.0613,10.0,1.392,11133222 
WAVCIS,ioos:station:WAVCIS:CSI03:1,2013-08-03T08:00:00Z,29.4412,-92.0613,10.0,1.472,11133222 
WAVCIS,ioos:station:WAVCIS:CSI03:1,2013-08-03T09:00:00Z,29.4412,-92.0613,10.0,1.522,11133222 
WAVCIS,ioos:station:WAVCIS:CSI03:1,2013-08-03T10:00:00Z,29.4412,-92.0613,10.0,1.554,11133222 
WAVCIS,ioos:station:WAVCIS:CSI03:1,2013-08-03T11:00:00Z,29.4412,-92.0613,10.0,1.674,11133222 
WAVCIS,ioos:station:WAVCIS:CSI03:1,2013-08-03T12:00:00Z,29.4412,-92.0613,10.0,1.881,11133222 
WAVCIS,ioos:station:WAVCIS:CSI03:1,2013-08-03T13:00:00Z,29.4412,-92.0613,10.0,1.893,11133222 
WAVCIS,ioos:station:WAVCIS:CSI03:1,2013-08-03T14:00:00Z,29.4412,-92.0613,10.0,2.02,11133222 
WAVCIS,ioos:station:WAVCIS:CSI03:1,2013-08-03T15:00:00Z,29.4412,-92.0613,10.0,2.153,11133222 
WAVCIS,ioos:station:WAVCIS:CSI03:1,2013-08-03T16:00:00Z,29.4412,-92.0613,10.0,2.351,11133222 
WAVCIS,ioos:station:WAVCIS:CSI03:1,2013-08-03T17:00:00Z,29.4412,-92.0613,10.0,2.506,11133222 
WAVCIS,ioos:station:WAVCIS:CSI03:1,2013-08-03T18:00:00Z,29.4412,-92.0613,10.0,2.659,11133222 
WAVCIS,ioos:station:WAVCIS:CSI03:1,2013-08-03T19:00:00Z,29.4412,-92.0613,10.0,2.539,11133222 
WAVCIS,ioos:station:WAVCIS:CSI03:1,2013-08-03T20:00:00Z,29.4412,-92.0613,10.0,2.696,11133222 
WAVCIS,ioos:station:WAVCIS:CSI03:1,2013-08-03T21:00:00Z,29.4412,-92.0613,10.0,3.018,11133222 
WAVCIS,ioos:station:WAVCIS:CSI03:1,2013-08-03T22:00:00Z,29.4412,-92.0613,10.0,3.261,11133222 
WAVCIS,ioos:station:WAVCIS:CSI03:1,2013-08-03T23:00:00Z,29.4412,-92.0613,10.0,3.561,11133222 
WAVCIS,ioos:station:WAVCIS:CSI03:1,2013-08-04T00:00:00Z,29.4412,-92.0613,10.0,3.792,11133222 
WAVCIS,ioos:station:WAVCIS:CSI03:1,2013-08-04T01:00:00Z,29.4412,-92.0613,10.0,3.766,11133222 
WAVCIS,ioos:station:WAVCIS:CSI03:1,2013-08-04T02:00:00Z,29.4412,-92.0613,10.0,3.957,11133222 
WAVCIS,ioos:station:WAVCIS:CSI03:1,2013-08-04T03:00:00Z,29.4412,-92.0613,10.0,3.942,11133222 
WAVCIS,ioos:station:WAVCIS:CSI03:1,2013-08-04T04:00:00Z,29.4412,-92.0613,10.0,4.234,11133222 
WAVCIS,ioos:station:WAVCIS:CSI03:1,2013-08-04T05:00:00Z,29.4412,-92.0613,10.0,4.313,11133222 
WAVCIS,ioos:station:WAVCIS:CSI03:1,2013-08-04T06:00:00Z,29.4412,-92.0613,10.0,4.457,11133222 
WAVCIS,ioos:station:WAVCIS:CSI03:1,2013-08-04T07:00:00Z,29.4412,-92.0613,10.0,4.6,11133222 
WAVCIS,ioos:station:WAVCIS:CSI03:1,2013-08-04T08:00:00Z,29.4412,-92.0613,10.0,4.681,11133222 
WAVCIS,ioos:station:WAVCIS:CSI03:1,2013-08-04T09:00:00Z,29.4412,-92.0613,10.0,4.858,11133222 
WAVCIS,ioos:station:WAVCIS:CSI03:1,2013-08-04T10:00:00Z,29.4412,-92.0613,10.0,5.04,11133222 
WAVCIS,ioos:station:WAVCIS:CSI03:1,2013-08-04T11:00:00Z,29.4412,-92.0613,10.0,5.18,11133222 
WAVCIS,ioos:station:WAVCIS:CSI03:1,2013-08-04T12:00:00Z,29.4412,-92.0613,10.0,5.294,11133222 
WAVCIS,ioos:station:WAVCIS:CSI03:1,2013-08-04T13:00:00Z,29.4412,-92.0613,10.0,5.405,11133222 
WAVCIS,ioos:station:WAVCIS:CSI03:1,2013-08-04T14:00:00Z,29.4412,-92.0613,10.0,5.581,11133222 
WAVCIS,ioos:station:WAVCIS:CSI03:1,2013-08-04T15:00:00Z,29.4412,-92.0613,10.0,5.744,11133222 
WAVCIS,ioos:station:WAVCIS:CSI03:1,2013-08-04T16:00:00Z,29.4412,-92.0613,10.0,5.994,11133222 
WAVCIS,ioos:station:WAVCIS:CSI03:1,2013-08-04T17:00:00Z,29.4412,-92.0613,10.0,6.28,11133222 
WAVCIS,ioos:station:WAVCIS:CSI03:1,2013-08-04T18:00:00Z,29.4412,-92.0613,10.0,6.49,11133222 
WAVCIS,ioos:station:WAVCIS:CSI03:1,2013-08-04T19:00:00Z,29.4412,-92.0613,10.0,6.8,11133222 
WAVCIS,ioos:station:WAVCIS:CSI03:1,2013-08-04T20:00:00Z,29.4412,-92.0613,10.0,6.98,11133222 
WAVCIS,ioos:station:WAVCIS:CSI03:1,2013-08-04T21:00:00Z,29.4412,-92.0613,10.0,7.1,11133222 
WAVCIS,ioos:station:WAVCIS:CSI03:1,2013-08-04T22:00:00Z,29.4412,-92.0613,10.0,7.32,11133222 
WAVCIS,ioos:station:WAVCIS:CSI03:1,2013-08-04T23:00:00Z,29.4412,-92.0613,10.0,7.72,11133222 
WAVCIS,ioos:station:WAVCIS:CSI03:1,2013-08-05T00:00:00Z,29.4412,-92.0613,10.0,7.92,11133222 
WAVCIS,ioos:station:WAVCIS:CSI03:1,2013-08-05T01:00:00Z,29.4412,-92.0613,10.0,8.16,11133222 
WAVCIS,ioos:station:WAVCIS:CSI03:1,2013-08-05T02:00:00Z,29.4412,-92.0613,10.0,8.39,11133222 
WAVCIS,ioos:station:WAVCIS:CSI03:1,2013-08-05T03:00:00Z,29.4412,-92.0613,10.0,8.47,11133222 
WAVCIS,ioos:station:WAVCIS:CSI03:1,2013-08-05T04:00:00Z,29.4412,-92.0613,10.0,8.63,11133222 
WAVCIS,ioos:station:WAVCIS:CSI03:1,2013-08-05T05:00:00Z,29.4412,-92.0613,10.0,8.78,11133222 
WAVCIS,ioos:station:WAVCIS:CSI03:1,2013-08-05T06:00:00Z,29.4412,-92.0613,10.0,8.86,11133222 
WAVCIS,ioos:station:WAVCIS:CSI03:1,2013-08-05T07:00:00Z,29.4412,-92.0613,10.0,8.91,11133222 
WAVCIS,ioos:station:WAVCIS:CSI03:1,2013-08-05T08:00:00Z,29.4412,-92.0613,10.0,9.06,11133222 
WAVCIS,ioos:station:WAVCIS:CSI03:1,2013-08-05T09:00:00Z,29.4412,-92.0613,10.0,9.16,11133222 
WAVCIS,ioos:station:WAVCIS:CSI03:1,2013-08-05T10:00:00Z,29.4412,-92.0613,10.0,9.23,11133222 
WAVCIS,ioos:station:WAVCIS:CSI03:1,2013-08-05T11:00:00Z,29.4412,-92.0613,10.0,9.34,11133222 
WAVCIS,ioos:station:WAVCIS:CSI03:1,2013-08-05T12:00:00Z,29.4412,-92.0613,10.0,9.5,11133222 
WAVCIS,ioos:station:WAVCIS:CSI03:1,2013-08-05T13:00:00Z,29.4412,-92.0613,10.0,9.68,11133222 
WAVCIS,ioos:station:WAVCIS:CSI03:1,2013-08-05T14:00:00Z,29.4412,-92.0613,10.0,9.8,11133222 
WAVCIS,ioos:station:WAVCIS:CSI03:1,2013-08-05T15:00:00Z,29.4412,-92.0613,10.0,9.93,11133222 
WAVCIS,ioos:station:WAVCIS:CSI03:1,2013-08-05T16:00:00Z,29.4412,-92.0613,10.0,10.13,11111222 
WAVCIS,ioos:station:WAVCIS:CSI03:1,2013-08-05T17:00:00Z,29.4412,-92.0613,10.0,10.31,11111222 
WAVCIS,ioos:station:WAVCIS:CSI03:1,2013-08-05T18:00:00Z,29.4412,-92.0613,10.0,10.45,11111222 
WAVCIS,ioos:station:WAVCIS:CSI03:1,2013-08-05T19:00:00Z,29.4412,-92.0613,10.0,10.64,11111222 
WAVCIS,ioos:station:WAVCIS:CSI03:1,2013-08-05T20:00:00Z,29.4412,-92.0613,10.0,10.81,11111222 
WAVCIS,ioos:station:WAVCIS:CSI03:1,2013-08-05T21:00:00Z,29.4412,-92.0613,10.0,11.0,11111222 
WAVCIS,ioos:station:WAVCIS:CSI03:1,2013-08-05T22:00:00Z,29.4412,-92.0613,10.0,11.16,11111222 
WAVCIS,ioos:station:WAVCIS:CSI03:1,2013-08-05T23:00:00Z,29.4412,-92.0613,10.0,11.24,11111222 
WAVCIS,ioos:station:WAVCIS:CSI03:1,2013-08-06T00:00:00Z,29.4412,-92.0613,10.0,11.35,11111222 
WAVCIS,ioos:station:WAVCIS:CSI03:1,2013-08-06T01:00:00Z,29.4412,-92.0613,10.0,11.47,11111222 
WAVCIS,ioos:station:WAVCIS:CSI03:1,2013-08-06T02:00:00Z,29.4412,-92.0613,10.0,11.61,11111222 
WAVCIS,ioos:station:WAVCIS:CSI03:1,2013-08-06T03:00:00Z,29.4412,-92.0613,10.0,11.7,11111222 
WAVCIS,ioos:station:WAVCIS:CSI03:1,2013-08-06T04:00:00Z,29.4412,-92.0613,10.0,11.81,11111222 
WAVCIS,ioos:station:WAVCIS:CSI03:1,2013-08-06T05:00:00Z,29.4412,-92.0613,10.0,11.92,11111222 
WAVCIS,ioos:station:WAVCIS:CSI03:1,2013-08-06T06:00:00Z,29.4412,-92.0613,10.0,11.97,11111222 
WAVCIS,ioos:station:WAVCIS:CSI03:1,2013-08-06T07:00:00Z,29.4412,-92.0613,10.0,12.12,11111222 
WAVCIS,ioos:station:WAVCIS:CSI03:1,2013-08-06T08:00:00Z,29.4412,-92.0613,10.0,12.23,11111222 
WAVCIS,ioos:station:WAVCIS:CSI03:1,2013-08-06T09:00:00Z,29.4412,-92.0613,10.0,12.29,11111222 
WAVCIS,ioos:station:WAVCIS:CSI03:1,2013-08-06T10:00:00Z,29.4412,-92.0613,10.0,12.41,11111222 
WAVCIS,ioos:station:WAVCIS:CSI03:1,2013-08-06T11:00:00Z,29.4412,-92.0613,10.0,12.56,11111222 
WAVCIS,ioos:station:WAVCIS:CSI03:1,2013-08-06T12:00:00Z,29.4412,-92.0613,10.0,12.73,11111222 
WAVCIS,ioos:station:WAVCIS:CSI03:1,2013-08-06T13:00:00Z,29.4412,-92.0613,10.0,12.88,11111222 
WAVCIS,ioos:station:WAVCIS:CSI03:1,2013-08-06T14:00:00Z,29.4412,-92.0613,10.0,13.11,11111222 
WAVCIS,ioos:station:WAVCIS:CSI03:1,2013-08-06T15:00:00Z,29.4412,-92.0613,10.0,13.43,11111222 
WAVCIS,ioos:station:WAVCIS:CSI03:1,2013-08-06T16:00:00Z,29.4412,-92.0613,10.0,13.69,11111222 
WAVCIS,ioos:station:WAVCIS:CSI03:1,2013-08-06T17:00:00Z,29.4412,-92.0613,10.0,14.01,11111222 
WAVCIS,ioos:station:WAVCIS:CSI03:1,2013-08-06T18:00:00Z,29.4412,-92.0613,10.0,14.16,11111222 
WAVCIS,ioos:station:WAVCIS:CSI03:1,2013-08-06T19:00:00Z,29.4412,-92.0613,10.0,14.36,11111222 
WAVCIS,ioos:station:WAVCIS:CSI03:1,2013-08-06T20:00:00Z,29.4412,-92.0613,10.0,14.54,11111222 
WAVCIS,ioos:station:WAVCIS:CSI03:1,2013-08-06T21:00:00Z,29.4412,-92.0613,10.0,14.76,11111222 
WAVCIS,ioos:station:WAVCIS:CSI03:1,2013-08-06T22:00:00Z,29.4412,-92.0613,10.0,14.91,11111222 
WAVCIS,ioos:station:WAVCIS:CSI03:1,2013-08-06T23:00:00Z,29.4412,-92.0613,10.0,15.05,11111222 
WAVCIS,ioos:station:WAVCIS:CSI03:1,2013-08-07T00:00:00Z,29.4412,-92.0613,10.0,15.22,11111222 
WAVCIS,ioos:station:WAVCIS:CSI03:1,2013-08-07T01:00:00Z,29.4412,-92.0613,10.0,15.38,11111222 
WAVCIS,ioos:station:WAVCIS:CSI03:1,2013-08-07T02:00:00Z,29.4412,-92.0613,10.0,15.51,11111222 
WAVCIS,ioos:station:WAVCIS:CSI03:1,2013-08-07T03:00:00Z,29.4412,-92.0613,10.0,15.61,11111222 
WAVCIS,ioos:station:WAVCIS:CSI03:1,2013-08-07T04:00:00Z,29.4412,-92.0613,10.0,15.68,11111222 
WAVCIS,ioos:station:WAVCIS:CSI03:1,2013-08-07T05:00:00Z,29.4412,-92.0613,10.0,15.76,11111222 
WAVCIS,ioos:station:WAVCIS:CSI03:1,2013-08-07T06:00:00Z,29.4412,-92.0613,10.0,15.85,11111222 
WAVCIS,ioos:station:WAVCIS:CSI03:1,2013-08-07T07:00:00Z,29.4412,-92.0613,10.0,15.96,11111222 
WAVCIS,ioos:station:WAVCIS:CSI03:1,2013-08-07T08:00:00Z,29.4412,-92.0613,10.0,16.01,11111222 
WAVCIS,ioos:station:WAVCIS:CSI03:1,2013-08-07T09:00:00Z,29.4412,-92.0613,10.0,16.0,11111222 
WAVCIS,ioos:station:WAVCIS:CSI03:1,2013-08-07T10:00:00Z,29.4412,-92.0613,10.0,16.0,11111222 
WAVCIS,ioos:station:WAVCIS:CSI03:1,2013-08-07T11:00:00Z,29.4412,-92.0613,10.0,16.06,11111222 
WAVCIS,ioos:station:WAVCIS:CSI03:1,2013-08-07T12:00:00Z,29.4412,-92.0613,10.0,16.11,11111222 
WAVCIS,ioos:station:WAVCIS:CSI03:1,2013-08-07T13:00:00Z,29.4412,-92.0613,10.0,16.15,11111222 
WAVCIS,ioos:station:WAVCIS:CSI03:1,2013-08-07T14:00:00Z,29.4412,-92.0613,10.0,16.19,11111222 
WAVCIS,ioos:station:WAVCIS:CSI03:1,2013-08-07T15:00:00Z,29.4412,-92.0613,10.0,16.26,11111222 
WAVCIS,ioos:station:WAVCIS:CSI03:1,2013-08-07T16:00:00Z,29.4412,-92.0613,10.0,16.37,11111222 
WAVCIS,ioos:station:WAVCIS:CSI03:1,2013-08-07T17:00:00Z,29.4412,-92.0613,10.0,16.54,11111222 
WAVCIS,ioos:station:WAVCIS:CSI03:1,2013-08-07T18:00:00Z,29.4412,-92.0613,10.0,16.79,11111222 
WAVCIS,ioos:station:WAVCIS:CSI03:1,2013-08-07T19:00:00Z,29.4412,-92.0613,10.0,17.03,11111222 
WAVCIS,ioos:station:WAVCIS:CSI03:1,2013-08-07T20:00:00Z,29.4412,-92.0613,10.0,17.12,11111222 
WAVCIS,ioos:station:WAVCIS:CSI03:1,2013-08-07T21:00:00Z,29.4412,-92.0613,10.0,17.21,11111222 
WAVCIS,ioos:station:WAVCIS:CSI03:1,2013-08-07T22:00:00Z,29.4412,-92.0613,10.0,17.28,11111222 
WAVCIS,ioos:station:WAVCIS:CSI03:1,2013-08-07T23:00:00Z,29.4412,-92.0613,10.0,17.38,11111222 
WAVCIS,ioos:station:WAVCIS:CSI03:1,2013-08-08T00:00:00Z,29.4412,-92.0613,10.0,17.41,11111222 
WAVCIS,ioos:station:WAVCIS:CSI03:1,2013-08-08T01:00:00Z,29.4412,-92.0613,10.0,17.5,11111222 
WAVCIS,ioos:station:WAVCIS:CSI03:1,2013-08-08T02:00:00Z,29.4412,-92.0613,10.0,17.51,11111222 
WAVCIS,ioos:station:WAVCIS:CSI03:1,2013-08-08T03:00:00Z,29.4412,-92.0613,10.0,17.61,11111222 
WAVCIS,ioos:station:WAVCIS:CSI03:1,2013-08-08T04:00:00Z,29.4412,-92.0613,10.0,17.7,11111222 
WAVCIS,ioos:station:WAVCIS:CSI03:1,2013-08-08T05:00:00Z,29.4412,-92.0613,10.0,17.75,11111222 
WAVCIS,ioos:station:WAVCIS:CSI03:1,2013-08-08T06:00:00Z,29.4412,-92.0613,10.0,17.77,11111222 
WAVCIS,ioos:station:WAVCIS:CSI03:1,2013-08-08T07:00:00Z,29.4412,-92.0613,10.0,17.81,11111222 
WAVCIS,ioos:station:WAVCIS:CSI03:1,2013-08-08T08:00:00Z,29.4412,-92.0613,10.0,17.82,11111222 
WAVCIS,ioos:station:WAVCIS:CSI03:1,2013-08-08T09:00:00Z,29.4412,-92.0613,10.0,17.88,11111222 
WAVCIS,ioos:station:WAVCIS:CSI03:1,2013-08-08T10:00:00Z,29.4412,-92.0613,10.0,17.97,11111222 
WAVCIS,ioos:station:WAVCIS:CSI03:1,2013-08-08T11:00:00Z,29.4412,-92.0613,10.0,18.02,11111222 
WAVCIS,ioos:station:WAVCIS:CSI03:1,2013-08-08T12:00:00Z,29.4412,-92.0613,10.0,18.04,11111222 
WAVCIS,ioos:station:WAVCIS:CSI03:1,2013-08-08T13:00:00Z,29.4412,-92.0613,10.0,18.06,11111222 
WAVCIS,ioos:station:WAVCIS:CSI03:1,2013-08-08T14:00:00Z,29.4412,-92.0613,10.0,18.15,11111222 
WAVCIS,ioos:station:WAVCIS:CSI03:1,2013-08-08T15:00:00Z,29.4412,-92.0613,10.0,18.21,11111222 
WAVCIS,ioos:station:WAVCIS:CSI03:1,2013-08-08T16:00:00Z,29.4412,-92.0613,10.0,18.3,11111222 
WAVCIS,ioos:station:WAVCIS:CSI03:1,2013-08-08T17:00:00Z,29.4412,-92.0613,10.0,18.47,11111222 
WAVCIS,ioos:station:WAVCIS:CSI03:1,2013-08-08T18:00:00Z,29.4412,-92.0613,10.0,18.44,11111222 
WAVCIS,ioos:station:WAVCIS:CSI03:1,2013-08-08T19:00:00Z,29.4412,-92.0613,10.0,18.48,11111222 
WAVCIS,ioos:station:WAVCIS:CSI03:1,2013-08-08T20:00:00Z,29.4412,-92.0613,10.0,18.61,11111222 
WAVCIS,ioos:station:WAVCIS:CSI03:1,2013-08-08T21:00:00Z,29.4412,-92.0613,10.0,18.62,11111222 
WAVCIS,ioos:station:WAVCIS:CSI03:1,2013-08-08T22:00:00Z,29.4412,-92.0613,10.0,18.68,11111222 
WAVCIS,ioos:station:WAVCIS:CSI03:1,2013-08-08T23:00:00Z,29.4412,-92.0613,10.0,18.71,11111222 
WAVCIS,ioos:station:WAVCIS:CSI03:1,2013-08-09T00:00:00Z,29.4412,-92.0613,10.0,18.76,11111222 
WAVCIS,ioos:station:WAVCIS:CSI03:1,2013-08-09T01:00:00Z,29.4412,-92.0613,10.0,18.84,11111222 
WAVCIS,ioos:station:WAVCIS:CSI03:1,2013-08-09T02:00:00Z,29.4412,-92.0613,10.0,19.15,11111222 
WAVCIS,ioos:station:WAVCIS:CSI03:1,2013-08-09T03:00:00Z,29.4412,-92.0613,10.0,19.23,11111222 
WAVCIS,ioos:station:WAVCIS:CSI03:1,2013-08-09T04:00:00Z,29.4412,-92.0613,10.0,19.26,11111222 
WAVCIS,ioos:station:WAVCIS:CSI03:1,2013-08-09T05:00:00Z,29.4412,-92.0613,10.0,19.32,11111222 
WAVCIS,ioos:station:WAVCIS:CSI03:1,2013-08-09T06:00:00Z,29.4412,-92.0613,10.0,19.37,11111222 
WAVCIS,ioos:station:WAVCIS:CSI03:1,2013-08-09T07:00:00Z,29.4412,-92.0613,10.0,19.39,11111222 
WAVCIS,ioos:station:WAVCIS:CSI03:1,2013-08-09T08:00:00Z,29.4412,-92.0613,10.0,19.43,11111222 
WAVCIS,ioos:station:WAVCIS:CSI03:1,2013-08-09T09:00:00Z,29.4412,-92.0613,10.0,19.49,11111222 
WAVCIS,ioos:station:WAVCIS:CSI03:1,2013-08-09T10:00:00Z,29.4412,-92.0613,10.0,19.57,11111222 
WAVCIS,ioos:station:WAVCIS:CSI03:1,2013-08-09T11:00:00Z,29.4412,-92.0613,10.0,19.61,11111222 
WAVCIS,ioos:station:WAVCIS:CSI03:1,2013-08-09T12:00:00Z,29.4412,-92.0613,10.0,19.61,11111222 
WAVCIS,ioos:station:WAVCIS:CSI03:1,2013-08-09T13:00:00Z,29.4412,-92.0613,10.0,19.67,11111222 
WAVCIS,ioos:station:WAVCIS:CSI03:1,2013-08-09T14:00:00Z,29.4412,-92.0613,10.0,19.78,11111222 
WAVCIS,ioos:station:WAVCIS:CSI03:1,2013-08-09T15:00:00Z,29.4412,-92.0613,10.0,19.92,11111222 
WAVCIS,ioos:station:WAVCIS:CSI03:1,2013-08-09T16:00:00Z,29.4412,-92.0613,10.0,20.02,11111222 
WAVCIS,ioos:station:WAVCIS:CSI03:1,2013-08-09T17:00:00Z,29.4412,-92.0613,10.0,20.16,11111222 
WAVCIS,ioos:station:WAVCIS:CSI03:1,2013-08-09T18:00:00Z,29.4412,-92.0613,10.0,20.18,11111222 
WAVCIS,ioos:station:WAVCIS:CSI03:1,2013-08-09T19:00:00Z,29.4412,-92.0613,10.0,20.29,11111222 
WAVCIS,ioos:station:WAVCIS:CSI03:1,2013-08-09T20:00:00Z,29.4412,-92.0613,10.0,20.39,11111222 
WAVCIS,ioos:station:WAVCIS:CSI03:1,2013-08-09T21:00:00Z,29.4412,-92.0613,10.0,20.47,11111222 
WAVCIS,ioos:station:WAVCIS:CSI03:1,2013-08-09T22:00:00Z,29.4412,-92.0613,10.0,20.36,11111222 
WAVCIS,ioos:station:WAVCIS:CSI03:1,2013-08-09T23:00:00Z,29.4412,-92.0613,10.0,20.35,11111222 
WAVCIS,ioos:station:WAVCIS:CSI03:1,2013-08-10T00:00:00Z,29.4412,-92.0613,10.0,20.53,11111222 
WAVCIS,ioos:station:WAVCIS:CSI03:1,2013-08-10T01:00:00Z,29.4412,-92.0613,10.0,20.83,11111222 
WAVCIS,ioos:station:WAVCIS:CSI03:1,2013-08-10T02:00:00Z,29.4412,-92.0613,10.0,20.87,11111222 
WAVCIS,ioos:station:WAVCIS:CSI03:1,2013-08-10T03:00:00Z,29.4412,-92.0613,10.0,20.79,11111222 
WAVCIS,ioos:station:WAVCIS:CSI03:1,2013-08-10T04:00:00Z,29.4412,-92.0613,10.0,20.75,11111222 
WAVCIS,ioos:station:WAVCIS:CSI03:1,2013-08-10T05:00:00Z,29.4412,-92.0613,10.0,20.75,11111222 
WAVCIS,ioos:station:WAVCIS:CSI03:1,2013-08-10T06:00:00Z,29.4412,-92.0613,10.0,20.73,11111222 
WAVCIS,ioos:station:WAVCIS:CSI03:1,2013-08-10T07:00:00Z,29.4412,-92.0613,10.0,20.68,11111222 
WAVCIS,ioos:station:WAVCIS:CSI03:1,2013-08-10T08:00:00Z,29.4412,-92.0613,10.0,20.6,11111222 
WAVCIS,ioos:station:WAVCIS:CSI03:1,2013-08-10T09:00:00Z,29.4412,-92.0613,10.0,20.62,11111222 
WAVCIS,ioos:station:WAVCIS:CSI03:1,2013-08-10T10:00:00Z,29.4412,-92.0613,10.0,20.61,11111222 
WAVCIS,ioos:station:WAVCIS:CSI03:1,2013-08-10T11:00:00Z,29.4412,-92.0613,10.0,20.44,11111222 
WAVCIS,ioos:station:WAVCIS:CSI03:1,2013-08-10T12:00:00Z,29.4412,-92.0613,10.0,20.47,11111222 
WAVCIS,ioos:station:WAVCIS:CSI03:1,2013-08-10T13:00:00Z,29.4412,-92.0613,10.0,20.49,11111222 
WAVCIS,ioos:station:WAVCIS:CSI03:1,2013-08-10T14:00:00Z,29.4412,-92.0613,10.0,20.6,11111222 
WAVCIS,ioos:station:WAVCIS:CSI03:1,2013-08-10T15:00:00Z,29.4412,-92.0613,10.0,20.68,11111222 
WAVCIS,ioos:station:WAVCIS:CSI03:1,2013-08-10T16:00:00Z,29.4412,-92.0613,10.0,20.77,11111222 
WAVCIS,ioos:station:WAVCIS:CSI03:1,2013-08-10T17:00:00Z,29.4412,-92.0613,10.0,21.08,11111222 
WAVCIS,ioos:station:WAVCIS:CSI03:1,2013-08-10T18:00:00Z,29.4412,-92.0613,10.0,20.98,11111222 
WAVCIS,ioos:station:WAVCIS:CSI03:1,2013-08-10T19:00:00Z,29.4412,-92.0613,10.0,21.14,11111222 
WAVCIS,ioos:station:WAVCIS:CSI03:1,2013-08-10T20:00:00Z,29.4412,-92.0613,10.0,21.07,11111222 
WAVCIS,ioos:station:WAVCIS:CSI03:1,2013-08-10T21:00:00Z,29.4412,-92.0613,10.0,21.58,11111222 
WAVCIS,ioos:station:WAVCIS:CSI03:1,2013-08-10T22:00:00Z,29.4412,-92.0613,10.0,21.5,11111222 
WAVCIS,ioos:station:WAVCIS:CSI03:1,2013-08-10T23:00:00Z,29.4412,-92.0613,10.0,21.66,11111222 
WAVCIS,ioos:station:WAVCIS:CSI03:1,2013-08-11T00:00:00Z,29.4412,-92.0613,10.0,21.59,11111222 
WAVCIS,ioos:station:WAVCIS:CSI03:1,2013-08-11T01:00:00Z,29.4412,-92.0613,10.0,21.56,11111222 
WAVCIS,ioos:station:WAVCIS:CSI03:1,2013-08-11T02:00:00Z,29.4412,-92.0613,10.0,21.44,11111222 
WAVCIS,ioos:station:WAVCIS:CSI03:1,2013-08-11T03:00:00Z,29.4412,-92.0613,10.0,21.31,11111222 
WAVCIS,ioos:station:WAVCIS:CSI03:1,2013-08-11T04:00:00Z,29.4412,-92.0613,10.0,21.31,11111222 
WAVCIS,ioos:station:WAVCIS:CSI03:1,2013-08-11T05:00:00Z,29.4412,-92.0613,10.0,21.23,11111222 
WAVCIS,ioos:station:WAVCIS:CSI03:1,2013-08-11T06:00:00Z,29.4412,-92.0613,10.0,21.13,11111222 
WAVCIS,ioos:station:WAVCIS:CSI03:1,2013-08-11T07:00:00Z,29.4412,-92.0613,10.0,21.25,11111222 
WAVCIS,ioos:station:WAVCIS:CSI03:1,2013-08-11T08:00:00Z,29.4412,-92.0613,10.0,21.5,11111222 
WAVCIS,ioos:station:WAVCIS:CSI03:1,2013-08-11T09:00:00Z,29.4412,-92.0613,10.0,21.5,11111222 
WAVCIS,ioos:station:WAVCIS:CSI03:1,2013-08-11T10:00:00Z,29.4412,-92.0613,10.0,21.4,11111222 
WAVCIS,ioos:station:WAVCIS:CSI03:1,2013-08-11T11:00:00Z,29.4412,-92.0613,10.0,21.23,11111222 
WAVCIS,ioos:station:WAVCIS:CSI03:1,2013-08-11T12:00:00Z,29.4412,-92.0613,10.0,21.18,11111222 
WAVCIS,ioos:station:WAVCIS:CSI03:1,2013-08-11T13:00:00Z,29.4412,-92.0613,10.0,21.41,11111222 